DW5338 Weather Reports


time (UTC)temp
C
wind
direction
speed
KPH
gust
KPH
rain 1hr
cm
rain 24hr
cm
rain mn
cm
humidity
%
barometer
mb
20260504081518 3 225 11.3 17.7 0.00 0.00 0.00 49 1014.3
20260504080519 3 225 11.3 19.3 0.00 0.00 0.00 51 1014.2
20260504050520 6 225 11.3 20.9 0.00 0.00 0.00 47 1015.8
20260504045520 6 225 11.3 19.3 0.00 0.00 0.00 46 1015.8
20260504044516 5 203 8.0 12.9 0.00 0.00 0.00 49 1015.7
20260504043516 6 225 9.7 14.5 0.00 0.00 0.00 48 1016.0
20260504042516 6 225 9.7 14.5 0.00 0.00 0.00 47 1015.8
20260504041520 6 203 8.0 16.1 0.00 0.00 0.00 48 1016.1
20260504040520 7 203 6.4 11.3 0.00 0.00 0.00 45 1016.1
20260504035520 7 203 6.4 9.7 0.00 0.00 0.00 43 1016.0
20260504034517 7 203 3.2 6.4 0.00 0.00 0.00 44 1016.1
20260504033516 7 203 3.2 6.4 0.00 0.00 0.00 43 1016.2
20260504032516 7 0.0 3.2 0.00 0.00 0.00 42 1016.0
20260504031520 7 203 1.6 3.2 0.00 0.00 0.00 42 1015.9
20260504030520 8 203 1.6 4.8 0.00 0.00 0.00 43 1015.9
20260504025520 8 248 3.2 9.7 0.00 0.00 0.00 42 1015.6
20260504024520 8 203 3.2 8.0 0.00 0.00 0.00 40 1015.5
20260504023520 9 203 4.8 11.3 0.00 0.00 0.00 39 1015.8
20260504022537 9 225 6.4 11.3 0.00 0.00 0.00 38 1015.6
20260504021516 10 225 6.4 14.5 0.00 0.00 0.00 37 1015.7
20260504020517 10 203 9.7 17.7 0.00 0.00 0.00 36 1015.6
20260504015516 10 203 8.0 17.7 0.00 0.00 0.00 35 1015.5
20260504014516 10 225 6.4 17.7 0.00 0.00 0.00 34 1015.5
20260504013516 10 225 6.4 14.5 0.00 0.00 0.00 34 1015.4
20260504012536 10 248 4.8 12.9 0.00 0.00 0.00 34 1015.4
20260504011517 11 270 8.0 16.1 0.00 0.00 0.00 34 1015.4
20260504010520 11 248 8.0 14.5 0.00 0.00 0.00 34 1015.5
20260504005519 11 270 11.3 17.7 0.00 0.00 0.00 33 1015.7
20260504004520 11 270 12.9 20.9 0.00 0.00 0.00 33 1015.6
20260504003520 11 270 20.9 38.6 0.00 0.00 0.00 32 1015.9
20260504002539 12 293 16.1 27.4 0.00 0.00 0.00 31 1015.9
20260504001539 12 293 22.5 35.4 0.00 0.00 0.00 31 1015.8
20260504000516 11 270 16.1 24.1 0.00 0.00 0.00 33 1015.6
20260503235516 11 293 19.3 32.2 0.00 0.00 0.00 34 1015.8
20260503234516 11 270 29.0 49.9 0.00 0.00 0.00 36 1016.0
20260503233516 12 270 20.9 46.7 0.00 0.00 0.00 31 1016.4
20260503232516 12 270 11.3 22.5 0.00 0.00 0.00 31 1016.5
20260503231516 11 225 16.1 30.6 0.00 0.00 0.00 31 1016.1
20260503230519 11 248 19.3 38.6 0.00 0.00 0.00 34 1016.2
20260503225536 12 270 17.7 37.0 0.00 0.00 0.00 27 1015.8
20260503224516 13 248 4.8 11.3 0.00 0.00 0.00 28 1015.4
20260503223516 13 225 6.4 12.9 0.00 0.00 0.00 29 1015.6
20260503222516 12 203 14.5 30.6 0.00 0.00 0.00 31 1016.1
20260503221516 12 270 12.9 37.0 0.00 0.00 0.00 29 1015.8
20260503220520 12 270 9.7 17.7 0.00 0.00 0.00 27 1015.8
20260503215520 12 338 1.6 8.0 0.00 0.00 0.00 27 1016.2
20260503214519 12 293 11.3 19.3 0.00 0.00 0.00 28 1016.3
20260503213516 12 315 11.3 25.7 0.00 0.00 0.00 29 1016.4
20260503212516 12 293 22.5 35.4 0.00 0.00 0.00 29 1016.3
20260503211516 12 338 17.7 33.8 0.00 0.00 0.00 28 1016.5
20260503210536 13 293 17.7 33.8 0.00 0.00 0.00 27 1016.7
20260503205516 13 248 3.2 9.7 0.00 0.00 0.00 25 1016.9
20260503204516 12 293 12.9 54.7 0.00 0.00 0.00 27 1016.9
20260503203516 13 248 9.7 22.5 0.00 0.00 0.00 27 1017.3
20260503202539 13 225 17.7 35.4 0.00 0.00 0.00 26 1017.4
20260503201516 14 270 11.3 27.4 0.00 0.00 0.00 21 1017.6
20260503200516 13 315 19.3 30.6 0.00 0.00 0.00 25 1017.3
20260503195516 12 293 11.3 33.8 0.00 0.00 0.00 24 1017.2
20260503194519 13 293 11.3 19.3 0.00 0.00 0.00 23 1017.1
20260503193516 14 270 14.5 33.8 0.00 0.00 0.00 22 1017.3
20260503192516 13 293 9.7 19.3 0.00 0.00 0.00 23 1017.3
20260503191516 13 248 14.5 37.0 0.00 0.00 0.00 23 1017.4
20260503190536 13 270 17.7 32.2 0.00 0.00 0.00 23 1017.4
20260503185516 13 270 20.9 35.4 0.00 0.00 0.00 23 1017.4
20260503184519 12 270 12.9 25.7 0.00 0.00 0.00 23 1017.7
20260503183519 12 293 14.5 27.4 0.00 0.00 0.00 22 1017.8
20260503182516 12 270 11.3 25.7 0.00 0.00 0.00 24 1017.7
20260503181516 12 270 8.0 17.7 0.00 0.00 0.00 25 1017.8
20260503180519 12 270 17.7 40.2 0.00 0.00 0.00 24 1018.0
20260503175519 12 270 12.9 37.0 0.00 0.00 0.00 24 1018.3
20260503174519 12 270 9.7 20.9 0.00 0.00 0.00 26 1018.6
20260503173516 11 270 9.7 22.5 0.00 0.00 0.00 26 1018.7
20260503172516 11 270 12.9 22.5 0.00 0.00 0.00 26 1018.6
20260503171516 11 270 8.0 19.3 0.00 0.00 0.00 27 1018.6
20260503170519 10 248 8.0 20.9 0.00 0.00 0.00 28 1018.6
20260503150515 8 248 12.9 20.9 0.00 0.00 0.00 35 1019.0
20260503130515 5 203 6.4 12.9 0.00 0.00 0.00 42 1020.0
20260503110519 7 248 9.7 20.9 0.00 0.00 0.00 36 1019.7